Torna al catalogo

STARLINK-1551

AttivoComunicazioniVLEO
NORAD 46075·PAYLOAD·🇺🇸 United States

Lanciato Aug 7, 2020 da Cape Canaveral Space Force Station

Loading…

Prossimi Passaggi (prossime 24 ore)

TLE

AggiornatoSource: CelesTrak SupGP

Epoca: Sep 14, 2026, 20:31 UTC

1 46075C 20055BA  26257.85534722 -.00011790  00000+0 -37919-3 0  2570
2 46075  53.1591 301.3746 0001118  92.7397 236.1763 15.31704667    19

Traccia STARLINK-1551 in tempo reale con AllMySat

Download on the App Store